Regional Weather Roundup
Issued by NWS

Home | Current Version | Previous Version | Graphics & Text | Print | Product List | Glossary On
Versions: 1 2 3 4 5 6 7 8 9 10 11 12 13 14 15 16 17 18 19 20 21 22 23 24 25 26 27 28 29 30 31 32 33 34 35 36 37 38 39 40 41 42 43 44 45 46 47 48 49 50
000
ASUS43 KDMX 180201
RWRIA

WEATHER ROUNDUP FOR IOWA
NATIONAL WEATHER SERVICE DES MOINES IA
800 PM CST SUN DEC 17 2017

NOTE: "FAIR" INDICATES FEW OR NO CLOUDS BELOW 12,000 FEET WITH NO
SIGNIFICANT WEATHER AND/OR OBSTRUCTIONS TO VISIBILITY.

* - THESE STATIONS ARE NOT NWS STATIONS...THUS NOT UNDER NWS
QUALITY CONTROL.  THEY ALSO DO NOT REPORT WEATHER SUCH
AS PRECIPITATION OR FOG.

IAZ001>003-012>014-020>022-031>034-043>046-180300-
   NORTHWEST IOWA

CITY           SKY/WX    TMP DP  RH WIND       PRES   REMARKS
CARROLL *      PTCLDY    27  23  86 W5        29.98S FOG     WCI  21
CHEROKEE *     CLOUDY    32  28  86 CALM      29.98F
DENISON *      PTCLDY    27  25  93 CALM      30.01R FOG
LE MARS *      CLOUDY    28  27  93 S3        29.98S
ORANGE CITY *  CLOUDY    28  28 100 CALM      29.97R
SHELDON *      PTCLDY    23  23 100 CALM      29.95S FOG
SIOUX CITY     MOCLDY    27  25  92 CALM      30.00S
SPENCER        PTCLDY    27  24  89 S3        29.97F
STORM LAKE *   CLOUDY    28  27  93 W3        29.97S
$$

IAZ055>058-069>071-079>083-090>094-180300-
   SOUTHWEST IOWA

CITY           SKY/WX    TMP DP  RH WIND       PRES   REMARKS
ATLANTIC *     PTCLDY    28  25  86 CALM      29.99S
AUDUBON *      PTCLDY    25  19  80 CALM      29.98R
CLARINDA *     CLOUDY    34  34 100 NW6       30.04  FOG     WCI  29
COUNCIL BLFS * PTCLDY    28  28 100 NW3       30.00R
CRESTON *      CLEAR     30  30 100 SW6       30.00R FOG     WCI  24
HARLAN  *      PTCLDY    25  25 100 CALM      30.03R
LAMONI         CLOUDY    40  37  89 W9        29.99R WCI  34
RED OAK *      MOCLDY    28  28 100 CALM      30.01R FOG
SHENANDOAH *   CLOUDY    34  32  93 SW5       30.03R FOG     WCI  30
$$

IAZ047>049-059>061-072>074-084-180300-
   CENTRAL IOWA

CITY           SKY/WX    TMP DP  RH WIND       PRES   REMARKS
AMES           PTCLDY    25  24  96 CALM      29.98S FOG
ANKENY *       CLOUDY    36  30  80 W7        30.00R WCI  30
BOONE *        PTCLDY    30  27  86 NW5       29.97R FOG     WCI  25
CHARITON *     CLOUDY    37  37 100 NW5       29.98R FOG     WCI  34
DES MOINES     CLOUDY    36  31  82 W7        29.99R WCI  30
GRINNELL*      CLOUDY    36  34  92 W5        29.98R WCI  32
KNOXVILLE *    CLOUDY    36  34  93 W6        29.97R WCI  31
MARSHALLTOWN   CLOUDY    32  28  85 N8        29.97S FOG     WCI  25
NEWTON *       CLOUDY    36  32  87 SW5       29.97S WCI  32
PELLA *        CLOUDY    37  35  95 W5        29.99R WCI  33
$$

IAZ004>006-015-016-023>025-035-036-180300-
   NORTH CENTRAL IOWA

CITY           SKY/WX    TMP DP  RH WIND       PRES   REMARKS
ALGONA *       CLOUDY    30  30 100 S5        29.97F FOG     WCI  25
CLARION *      CLOUDY    30  32 100 CALM      29.98S
ESTHERVILLE    CLOUDY    24  23  96 S5        29.96F WCI  18
FORT DODGE *   CLOUDY   N/A N/A N/A CALM      29.98S
MASON CITY     FOG       28  28 100 CALM      29.99S VSB 1
FOREST CITY *  CLOUDY    30  30 100 CALM      29.97F FOG
WEBSTER CITY * CLOUDY    30  27  86 NW6       29.96R WCI  24
IOWA FALLS *   CLOUDY    33  29  86 CALM      29.97F
$$

IAZ007>011-017>019-026>030-037>042-050>054-066-180300-
   NORTHEAST IOWA

CITY           SKY/WX    TMP DP  RH WIND       PRES   REMARKS
CEDAR RAPIDS   CLOUDY    36  35  96 S6        29.96F FOG     WCI  31
CLINTON *      MIX PCPN  37  35  92 S3        29.99F
DECORAH *      CLOUDY    30  30 100 S5        29.97S FOG     WCI  25
DUBUQUE        CLOUDY    33  31  92 SE5       29.97F FOG     WCI  29
MONTICELLO *   CLOUDY    34  34 100 CALM      29.97F FOG
OELWEIN *      CLOUDY    34  32  93 N6        29.98R FOG     WCI  29
WATERLOO       CLOUDY    33  29  85 N3        29.97F FOG
$$

IAZ064-065-067-068-078-180300-
   EAST CENTRAL IOWA

CITY           SKY/WX    TMP DP  RH WIND       PRES   REMARKS
DAVENPORT      CLOUDY    39  37  92 CALM      30.01S FOG
IOWA CITY      CLOUDY    38  36  92 CALM      30.00F FOG
MT. PLEASANT * CLOUDY    41  41 100 S5        29.99R FOG
MUSCATINE *    CLOUDY    39  37  93 CALM      29.99F FOG
QUAD CITIES    CLOUDY    40  39  97 E3        29.98F FOG
$$

IAZ062-063-075>077-085>089-095>099-180300-
   SOUTHEAST IOWA

CITY           SKY/WX    TMP DP  RH WIND       PRES   REMARKS
BURLINGTON     CLOUDY    42  42 100 S5        29.99S FOG
FAIRFIELD *    CLOUDY    41  41 100 CALM      29.98R FOG
FORT MADISON * CLOUDY    43  43 100 S6        30.00S FOG
KEOKUK *       CLOUDY    45  43  93 SW8       30.00S
OSKALOOSA *    DRZL/FOG  37  36  98 CALM      29.98S VSB 1
OTTUMWA        CLOUDY    39  32  76 CALM      29.98S FOG
WASHINGTON *   CLOUDY    39  39 100 CALM      29.99S FOG
$$

ABBREVIATIONS USED IN REMARKS
   TC - TEMPERATURES IN CELSIUS
  WCI - WIND CHILL INDEX
   HX - HEAT INDEX
  VSB - VISIBILITY
$$





USA.gov is the U.S. government's official web portal to all federal, state and local government web resources and services.